This is the latest recevied weather packets stored in our database for station/object F4FEB-14. If no packets are shown the sender has not sent any weather packets the latest 1 day(s).
| Time | Temp. | Humidity | Pressure | Rain* | Wind** | Luminosity | Snow |
|---|---|---|---|---|---|---|---|
| 1778003473 | 12.78° C | 100% | 1010.4 hPa | 0 mm | 0 m/s | - | - |
| 1778003173 | 12.78° C | 100% | 1010.5 hPa | 0 mm | 0 m/s | - | - |
| 1778002872 | 12.78° C | 100% | 1010.5 hPa | 0 mm | 0 m/s | - | - |
| 1778002571 | 12.78° C | 100% | 1010.5 hPa | 0 mm | 0.45 m/s, 208° | - | - |
| 1778002269 | 13.33° C | 100% | 1010.5 hPa | 0 mm | 0.89 m/s, 164° | - | - |
| 1778001968 | 13.33° C | 100% | 1010.6 hPa | 0 mm | 0.45 m/s, 160° | - | - |
| 1778001666 | 13.33° C | 100% | 1010.7 hPa | 0 mm | 0.45 m/s, 250° | - | - |
| 1778001365 | 13.33° C | 100% | 1010.7 hPa | 0 mm | 0.45 m/s, 168° | - | - |
| 1778001063 | 13.33° C | 100% | 1010.8 hPa | 0 mm | 1.34 m/s, 159° | - | - |
| 1778000762 | 13.33° C | 100% | 1010.7 hPa | 0 mm | 0.89 m/s, 172° | - | - |
| 1778000461 | 13.33° C | 100% | 1010.7 hPa | 0 mm | 0.45 m/s, 172° | - | - |
| 1778000159 | 13.33° C | 100% | 1010.7 hPa | 0 mm | 1.34 m/s, 171° | - | - |
| 1777999858 | 13.33° C | 100% | 1010.6 hPa | 0 mm | 1.34 m/s, 170° | - | - |
| 1777999557 | 13.33° C | 100% | 1010.6 hPa | 0 mm | 1.34 m/s, 163° | - | - |
| 1777999257 | 13.33° C | 100% | 1010.7 hPa | 0 mm | 0.89 m/s, 214° | - | - |
| 1777998955 | 13.33° C | 100% | 1010.8 hPa | 0 mm | 1.34 m/s, 178° | - | - |
| 1777998653 | 13.33° C | 100% | 1010.8 hPa | 0 mm | 0.89 m/s, 168° | - | - |
| 1777998353 | 13.33° C | 100% | 1010.7 hPa | 0 mm | 0 m/s | - | - |
| 1777998052 | 13.33° C | 100% | 1010.7 hPa | 0 mm | 0.45 m/s, 247° | - | - |
| 1777997750 | 13.33° C | 100% | 1010.7 hPa | 0 mm | 0.89 m/s, 198° | - | - |
| 1777997449 | 13.33° C | 100% | 1010.8 hPa | 0 mm | 0.45 m/s, 299° | - | - |
| 1777997148 | 13.89° C | 100% | 1010.7 hPa | 0 mm | 0 m/s | - | - |
| 1777996847 | 13.89° C | 100% | 1010.9 hPa | 0 mm | 0 m/s | - | - |
| 1777996546 | 13.89° C | 100% | 1010.9 hPa | 0 mm | 0.89 m/s, 201° | - | - |
| 1777996245 | 13.89° C | 100% | 1010.9 hPa | 0 mm | 2.24 m/s, 173° | - | - |
* Rain latest hour (hover to see other rain measurements)
** Current wind speed in m/s (hover to see current wind gust speed)